Location: Viterbo
(42.4170°N, 12.1000°E)
Time: 22:49:42
(UTC+01:00)

PCSat - Visible Passes

Search period start: 20 January 2020 00:00
Search period end: 30 January 2020 00:00
Orbit: 785 x 794 km, 67.1° (Epoch: 20 January)

Date Brightness Start Highest point End Pass type
(mag) Time Alt. Az. Time Alt. Az. Time Alt. Az.
20 Jan 11.8 03:59:31 22° ENE 03:59:31 22° ENE 04:01:53 10° NE visible
20 Jan 9.9 05:40:17 42° WNW 05:40:26 42° NW 05:45:37 10° NNE visible
21 Jan 12.5 03:30:07 11° ENE 03:30:07 11° ENE 03:30:26 10° ENE visible
21 Jan 10.2 05:10:53 42° N 05:10:53 42° N 05:14:44 10° NNE visible
21 Jan 11.4 06:51:50 10° WNW 06:54:00 12° NW 06:56:10 10° N visible
22 Jan 11.1 04:41:17 28° NNE 04:41:17 28° NNE 04:43:48 10° NNE visible
22 Jan 11.2 06:22:01 15° NW 06:22:41 15° NW 06:25:50 10° N visible
23 Jan 11.8 04:11:33 18° NNE 04:11:33 18° NNE 04:12:49 10° NNE visible
23 Jan 11.1 05:52:16 19° NNW 05:52:16 19° NNW 05:55:17 10° N visible
24 Jan 12.4 03:41:42 10° NE 03:41:42 10° NE 03:41:46 10° NE visible
24 Jan 11.3 05:22:26 19° NNW 05:22:26 19° NNW 05:24:37 10° N visible
25 Jan 11.6 04:52:31 16° N 04:52:31 16° N 04:53:51 10° NNE visible
26 Jan 12.0 04:22:32 12° NNE 04:22:32 12° NNE 04:23:02 10° NNE visible
27 Jan 11.8 05:33:13 10° NNW 05:33:13 10° NNW 05:33:30 10° NNW visible
28 Jan 12.0 05:03:08 10° N 05:03:08 10° N 05:03:13 10° N visible
